星链-34309 (STARLINK-34309)

导读

STARLINK-34309是美国SpaceX星链星座的一员,于2025年5月27日发射升空。星链项目旨在构建全球卫星互联网,为全球偏远地区、海洋与空中提供高速低延迟网络服务。该卫星继承星链典型设计,依托批量部署的星座优势,进一步拓展了星链星座的覆盖范围,提升了全球宽带卫星通信服务能力。

基本信息
目录编号:
64167
目录名称:
STARLINK-34309
国际标识:
2025-112X
轨道中心:
EARTH
卫星名称:
星链-34309
卫星全名:
星链-34309 (STARLINK-34309)
卫星状态:
在轨 (已飞行382 天)
发射日期:
2025-05-27 UTC
国别 :
美国 (US)
星等 :
--
轨道信息
数据来源 国际轨道数据
星历时间: 2026-06-13T22:34:10+0800
9小时前
查看轨道信息
半长轴: 6927.623km
偏心率: 0.0001962
轨道倾角: 97.366°
近地点辐角 98.367°
升交点赤经 215.247°
平近点角 261.778°
近地点: 548.126km
远地点: 550.846km
周期: 95.639分钟
每日圈数: 15.056585
详细信息
固有亮度:
5
最大亮度:
2.5
卫星平台:
Starlink V1.0
覆盖范围:
全球
运营商:
太空探索技术公司
运营商所在国:
美国
制造商(研发单位):
太空探索技术公司
制造商所在国:
美国
使用方式:
暂无
卫星简介
Starlink 计划是 SpaceX 推出的全球卫星互联网项目,通过发射低轨道卫星,为全球尤其是偏远地区提供高速、低延迟的互联网服务。自 2019 年起,Starlink 已部署数千颗卫星,旨在缩小全球数字鸿沟,推动互联网普及。该项目还为军事、航空等行业提供通信支持,带来广泛经济效益。
2D轨道图
3D轨道图
轨道高度分析图
轨道倾角分析图
轨道综合分析图
查看轨道综合分析图